Weather History for CYTZ - October, 2013

Change the Weather History Date:

Wednesday, October 2, 2013

  Actual Average Record
Temperature  
Mean Temperature 68 °F -  
Max Temperature 77 °F 55 °F 77 °F (2013)
Min Temperature 60 °F 43 °F 37 °F (2003)
Cooling Degree Days 4    
Growing Degree Days 18 (Base 50)    
Moisture  
Dew Point 53 °F    
Average Humidity 63    
Maximum Humidity 94    
Minimum Humidity 16    
Precipitation  
Precipitation 0.00 in 0.08 in - ()
Sea Level Pressure  
Sea Level Pressure 29.97 in    
Wind  
Wind Speed 10 mph ()    
Max Wind Speed 18 mph    
Max Gust Speed 25 mph    
Visibility 9.1 miles    
Events      
Averages and records for this station are not official NWS values.
T = Trace of Precipitation, MM = Missing Value Source: Averaged Metar Reports

Daily Weather History Graph

Daily Weather History Graph

Search for Another Location

Airport or City:

Trip Planner

Search our weather history database for the weather conditions in past years. The results will help you decide how hot, cold, wet, or windy it might be!

Date:

Astronomy

Oct. 02, 2013 Rise Set
Actual Time 7:16 AM EDT 6:56 PM EDT
Civil Twilight 6:47 AM EDT 7:24 PM EDT
Nautical Twilight 6:14 AM EDT 7:58 PM EDT
Astronomical Twilight 5:41 AM EDT 8:31 PM EDT
Moon 4:44 AM EDT (10/2) 5:34 PM EDT (10/2)
Length of Visible Light 12h 36m
Length of Day
11h 39m
Waning Crescent, 6% of the Moon is Illuminated
Oct 2
Waning Crescent
Oct 4
New
Oct 11
First Quarter
Oct 18
Full
Oct 26
Last Quarter

Hourly Weather History & Observations

Time (EDT) Temp. Dew Point Humidity Pressure Visibility Wind Dir Wind Speed Gust Speed Precip Events Conditions
12:00 AM 64.4 °F 60.8 °F 88% 29.89 in 9.0 mi SW 15.0 mph - N/A   Clear
1:00 AM 64.4 °F 60.8 °F 88% 29.90 in 9.0 mi WSW 10.4 mph - N/A   Scattered Clouds
2:00 AM 64 °F 60 °F 83% 29.90 in 10 mi SW 9.2 mph - -  
2:00 AM 64.4 °F 60.8 °F 88% 29.90 in 9.0 mi SW 10.4 mph - N/A   Mostly Cloudy
3:00 AM 64.4 °F 60.8 °F 88% 29.90 in 9.0 mi SW 11.5 mph - N/A   Partly Cloudy
4:00 AM 64.4 °F 60.8 °F 88% 29.89 in 9.0 mi SW 15.0 mph - N/A   Overcast
5:00 AM 64.4 °F 60.8 °F 88% 29.91 in 9.0 mi SSW 15.0 mph - N/A   Overcast
6:00 AM 64.4 °F 60.8 °F 88% 29.92 in 9.0 mi SW 13.8 mph - N/A   Overcast
7:00 AM 64.4 °F 60.8 °F 88% 29.94 in 9.0 mi SSW 15.0 mph - N/A   Overcast
8:00 AM 63 °F 60 °F 89% 29.96 in 10 mi SW 11.5 mph - -   Overcast
8:00 AM 62.6 °F 60.8 °F 94% 29.95 in 9.0 mi SW 10.4 mph - N/A   Overcast
9:00 AM 64.4 °F 60.8 °F 88% 29.97 in 9.0 mi SW 8.1 mph - N/A   Partly Cloudy
10:00 AM 68.0 °F 60.8 °F 78% 29.98 in 9.0 mi WSW 9.2 mph - N/A   Clear
11:00 AM 71.6 °F 59.0 °F 64% 29.99 in 9.0 mi West 10.4 mph - N/A   Mostly Cloudy
12:00 PM 73.4 °F 57.2 °F 57% 29.99 in 9.0 mi WSW 10.4 mph - N/A   Clear
1:00 PM 69.8 °F 59.0 °F 68% 30.00 in 9.0 mi South 8.1 mph - N/A   Clear
2:00 PM 71 °F 60 °F 60% 29.99 in 10 mi South 9.2 mph - -  
2:00 PM 71.6 °F 60.8 °F 69% 29.99 in 9.0 mi South 10.4 mph - N/A   Clear
3:00 PM 71.6 °F 57.2 °F 60% 29.98 in 9.0 mi SSW 8.1 mph - N/A   Clear
4:00 PM 77.0 °F 41.0 °F 28% 29.99 in 9.0 mi West 18.4 mph 25.3 mph N/A   Clear
5:00 PM 77.0 °F 37.4 °F 24% 29.99 in 9.0 mi WNW 13.8 mph 19.6 mph N/A   Clear
6:00 PM 75.2 °F 37.4 °F 25% 30.00 in 9.0 mi WNW 11.5 mph - N/A   Clear
7:00 PM 71.6 °F 37.4 °F 29% 30.02 in 9.0 mi WNW 11.5 mph - N/A   Clear
8:00 PM 69 °F 33 °F 16% 30.05 in 10 mi WNW 12.7 mph - -  
8:00 PM 68.0 °F 32.0 °F 26% 30.04 in 9.0 mi WNW 12.7 mph - N/A   Clear
9:00 PM 66.2 °F 35.6 °F 32% 30.06 in 9.0 mi NW 6.9 mph - N/A   Clear
10:00 PM 60.8 °F 39.2 °F 45% 30.08 in 9.0 mi West 6.9 mph - N/A   Clear
11:00 PM 62.6 °F 37.4 °F 39% 30.08 in 9.0 mi NW 5.8 mph - N/A   Clear